Weather in Landshut

Germany     48°32′22″N   12°09′37″E
temp.,
°C
wind,
m/s
gust,
m/s
humid.,
%
clouds,
%
prec.,
mm/h
press.,
hPa
HPBL,
m
19 april, mon
mon1923:00+2w239395 0.0 102144
02:00+1w229392 0.0 102122
05:00+1wsw2295100 0.0 102034
08:00+4w2386100 0.0 1020173
11:00+6wnw3379100 0.0 1020692
14:00+9nnw3365100 0.1 10191054
17:00+10nne336793 0.3 1017971
20:00+6nne118794 0.8 101810
20 april, tue
tue2023:00+4w1192100 0.0 101911
02:00+3w2294100 0.0 101918
05:00+3w229587 0.0 101823
08:00+5wsw2391100 0.0 1018128
11:00+6w2392100 0.8 1018314
14:00+11wnw116813 0.9 1016836
17:00+13nw115318 0.1 10141438
20:00+7nw11805 0.3 101510
21 april, wed
wed2123:00+5wsw11865 0.0 101710
02:00+4wsw22905 0.0 101720
05:00+3wsw22935 0.0 101726
08:00+5wsw23855 0.0 1017144
11:00+12w33646 0.0 1016917
14:00+14w34585 1.1 10151490
17:00+13nw357028 1.4 10141033
20:00+9wnw22805 1.9 101513
22 april, thu
thu2223:00+6nw228166 0.0 101711
02:00+5nw238781 0.1 101849
05:00+4nw249591 0.0 1018114
08:00+6nnw3691100 0.1 1020358
11:00+7nw3576100 0.1 1021773
14:00+11wnw574871 0.1 10201687
17:00+11nw56335 0.0 10201765
20:00+6wnw36634 0.0 102384
23 april, fri
fri2323:00+3nw38765 0.0 1025141
02:000n22825 0.0 102615
05:00−1nnw11841 0.0 102710
08:00+3ene11660 0.0 1027149
11:00+9ene12440 0.0 1026959
14:00+12ne22370 0.0 10241301
17:00+13ne33400 0.0 10221227
20:00+7ene22640 0.0 102214